Wind_Speed
9 9 10 10 10 10 11 11 12 11 11 12 12 12 12 12 12 11 11 11 11 11 11 11 11 11 10 10 9 9 9 9 9 10 10 11 11 13 14 15 16 17 18 19
10 10 10 10 11 11 11 12 13 13 12 13 14 13 13 13 12 12 12 12 12 13 12 12 12 12 12 12 11 11 11 11 12 12 13 13 14 15 16 17 18 18 19 20
12 12 11 10 11 12 12 12 13 13 13 14 15 14 15 14 13 13 13 13 13 13 13 13 13 13 13 13 13 13 12 13 14 14 15 15 16 17 18 19 19 20 21 22
13 14 13 12 13 13 13 14 14 14 13 14 15 15 15 15 14 14 14 14 14 13 14 13 14 14 14 14 14 14 15 14 15 16 16 17 18 19 20 22 23 23 25 26
15 15 13 13 14 14 15 14 15 15 15 15 15 15 15 15 14 14 14 14 14 14 14 14 14 14 15 15 15 16 16 17 17 18 18 20 21 22 23 24 26 27 28 28
16 16 15 14 16 16 16 15 16 16 16 16 16 15 15 15 15 15 14 14 14 14 14 15 15 16 16 16 17 18 18 18 19 20 21 23 24 25 26 27 28 29 30 30
18 18 16 16 17 17 17 17 17 17 16 16 16 16 17 17 16 16 16 16 16 16 16 16 17 17 18 19 19 20 21 22 22 23 25 26 27 28 29 30 31 31 32 33
20 19 17 18 18 17 17 18 18 18 18 17 18 18 18 18 18 18 18 17 18 18 18 19 19 20 20 21 22 23 24 25 26 27 28 29 30 31 32 32 33 33 34 35
21 20 20 20 19 19 19 18 18 18 18 18 19 19 19 20 20 20 19 19 19 20 20 21 21 22 23 24 25 25 26 28 28 29 30 31 32 33 33 34 35 35 36 37
22 21 21 21 21 21 20 20 19 19 19 19 20 20 21 21 21 21 20 21 21 22 22 23 24 25 25 26 27 28 29 30 31 32 33 34 34 35 36 36 37 37 38 39
23 23 23 23 22 22 22 21 21 21 21 21 21 21 22 22 22 23 23 23 23 23 24 25 26 27 28 28 29 30 31 32 33 34 35 36 37 37 38 38 39 40 40 41
24 25 25 24 24 23 23 23 23 23 22 23 23 23 23 24 24 25 25 25 25 25 26 27 28 29 30 31 32 33 33 34 35 36 37 38 38 38 39 40 41 41 42 43
27 27 26 26 26 25 25 25 25 25 25 25 26 26 26 26 26 27 27 27 27 28 28 29 29 30 32 33 34 34 35 36 37 37 38 39 39 40 40 41 42 43 44 45
28 28 28 27 27 27 28 28 28 28 28 28 28 29 29 29 29 29 29 30 30 30 30 31 31 32 33 34 34 36 37 38 38 39 39 40 41 42 42 43 44 45 46 47
30 30 30 30 30 30 30 30 30 30 31 31 31 31 31 31 31 32 32 32 32 32 32 33 34 34 35 36 36 36 37 39 40 40 41 42 42 43 44 45 46 47 48 50
31 31 32 32 32 32 32 32 32 32 32 32 33 33 33 34 34 34 34 34 35 35 36 36 36 37 37 38 38 39 39 40 42 43 43 44 45 46 47 48 49 50 51 52
32 32 33 33 33 33 33 33 33 33 33 34 34 35 35 35 36 37 37 38 38 39 39 39 39 40 40 41 41 42 43 43 44 45 46 47 47 48 49 50 50 51 52 53
34 34 34 35 35 34 34 34 35 35 35 36 36 36 37 37 38 39 40 41 42 42 42 42 43 43 43 44 44 45 45 46 47 47 47 48 49 50 51 51 52 53 54 55
36 36 36 36 36 36 36 36 36 37 37 37 38 38 38 39 40 40 41 42 43 43 44 44 45 45 46 46 47 47 47 48 48 49 49 50 51 51 52 53 54 55 56 57
37 37 37 38 38 38 39 39 39 39 39 40 40 40 41 42 42 43 44 44 45 46 46 47 47 48 48 48 49 50 50 50 51 52 52 53 53 54 54 55 56 57 58 58
39 39 39 39 39 40 40 40 41 41 41 42 42 42 43 44 44 45 46 46 47 47 48 49 49 50 50 50 51 51 52 53 53 54 54 54 55 56 56 57 58 58 59 59
40 40 41 41 41 42 42 42 43 43 43 44 44 45 45 46 47 47 48 48 49 49 50 51 51 52 52 53 53 53 53 54 54 55 55 56 56 57 58 59 59 60 60 60
40 41 41 42 43 43 43 44 44 44 44 45 45 45 46 47 47 48 49 49 50 50 51 52 52 53 54 54 54 54 54 55 56 56 57 57 58 58 59 59 60 60 60 59
41 42 42 43 43 44 44 45 45 45 46 46 47 47 48 48 49 49 50 51 51 52 53 53 54 54 55 56 56 56 56 57 57 57 58 58 58 58 59 59 59 59 59 57
42 42 43 43 44 44 45 46 46 47 47 48 49 50 50 51 51 52 52 52 53 53 54 54 54 55 55 55 55 56 56 56 56 56 57 57 58 58 58 58 58 58 57 56
44 44 44 44 44 44 45 46 47 47 49 50 50 51 51 52 53 53 53 53 53 53 54 53 53 53 53 53 53 54 55 56 56 56 56 57 57 57 57 57 57 57 56 55
45 45 45 45 45 46 46 47 48 48 49 50 51 51 51 52 52 53 53 53 53 53 53 53 53 53 53 53 54 54 55 56 56 56 55 55 56 56 57 56 56 55 54 53
Wind_Direction
224 229 231 232 235 236 236 234 230 226 225 229 235 238 239 241 243 245 247 248 249 249 248 244 244 247 249 250 255 256 258 260 265 272 279 284 291 297 299 302 306 309 311 312
234 238 240 241 244 245 243 241 235 230 230 234 238 242 243 247 249 248 250 251 252 251 248 245 246 249 252 254 255 258 263 268 273 278 281 283 288 295 299 301 302 305 308 310
241 247 249 249 248 248 247 245 241 238 236 237 241 245 247 249 252 252 252 254 255 253 247 245 247 250 254 255 258 261 266 271 277 280 283 285 289 294 296 299 302 304 306 308
246 250 251 247 249 251 249 246 247 244 241 241 245 250 249 251 254 256 255 254 253 251 248 248 251 255 257 259 262 266 271 276 282 283 283 287 291 294 297 299 301 303 304 306
249 252 252 251 251 250 249 247 249 247 246 247 250 253 251 251 253 253 254 254 252 250 250 252 255 258 260 263 267 269 274 279 282 285 287 290 293 295 297 298 299 301 303 304
251 253 254 252 251 252 252 250 249 249 249 251 253 255 255 254 254 254 254 254 252 252 254 256 260 263 264 267 269 272 275 279 283 287 290 292 294 295 296 297 299 300 301 302
253 255 255 254 254 255 255 254 251 252 252 252 253 254 254 253 254 255 256 257 255 257 258 260 263 267 268 270 272 274 277 280 283 287 290 291 293 294 295 296 297 298 299 301
252 254 255 254 256 257 255 255 254 254 254 254 253 254 254 256 258 259 261 262 260 261 262 263 266 269 271 271 273 276 279 282 284 287 289 292 293 294 295 295 295 296 298 300
251 252 253 254 255 256 256 257 256 256 256 257 257 257 257 258 260 261 263 264 265 264 265 266 268 270 272 274 275 278 280 282 285 286 289 291 292 294 294 294 296 297 298 300
251 250 251 253 255 256 256 257 257 256 257 258 259 259 260 261 262 262 263 266 267 268 267 267 270 272 274 276 278 279 281 283 285 286 288 290 291 293 294 295 296 298 299 300
251 251 251 252 255 256 257 258 258 259 260 260 261 261 262 263 264 265 266 267 269 270 271 272 273 274 276 278 279 280 282 283 285 287 289 290 291 292 293 294 296 298 299 300
250 250 251 253 254 256 257 259 260 261 262 262 263 264 265 267 267 268 269 270 271 272 273 274 276 276 278 279 280 282 283 284 285 287 289 291 292 293 294 295 296 297 298 299
250 250 251 253 255 257 259 260 262 263 263 264 264 265 267 268 269 270 272 273 274 274 275 276 277 279 280 280 281 282 284 285 287 289 290 291 292 293 294 295 296 297 298 299
252 253 254 255 257 259 260 261 262 263 264 264 265 266 267 268 270 271 273 274 275 276 277 278 279 280 280 282 283 284 285 286 288 289 290 292 292 293 294 294 295 296 298 299
254 255 256 257 259 261 262 263 264 264 265 265 266 267 268 269 270 271 273 274 275 276 278 279 279 280 281 282 283 285 286 287 288 289 290 291 292 293 293 294 295 296 298 298
256 258 259 260 261 261 262 264 264 265 266 267 267 268 268 269 270 271 272 274 275 276 277 278 279 280 280 282 283 284 286 287 288 288 289 290 291 292 293 294 295 296 297 298
258 259 261 261 262 263 263 264 264 265 266 268 268 269 270 270 270 271 272 273 274 275 277 278 279 279 280 281 282 283 285 286 288 289 289 290 291 292 293 294 295 296 297 298
259 260 261 262 263 263 264 264 265 266 267 268 269 270 271 271 272 272 273 274 275 276 276 277 278 279 280 281 282 283 284 285 287 288 289 291 291 292 292 294 295 296 297 298
260 261 262 263 264 264 265 265 266 267 268 269 270 271 271 272 273 274 275 276 277 277 278 278 279 279 280 281 282 283 284 285 287 288 289 290 291 292 292 293 294 295 297 298
261 262 263 263 264 265 266 267 267 268 270 271 271 272 273 273 274 275 276 277 277 278 278 279 280 280 280 281 283 284 285 286 286 287 288 289 290 291 292 293 294 296 297 298
261 262 263 263 264 265 266 267 268 269 270 271 272 273 274 274 275 276 276 277 277 278 278 279 280 280 281 282 282 283 284 285 286 287 288 289 289 290 291 293 294 296 297 298
263 264 264 264 264 265 266 268 269 270 271 272 273 274 275 275 276 276 277 277 278 278 278 279 279 280 281 281 282 283 284 284 285 286 287 288 289 290 291 293 294 296 296 297
264 265 265 265 266 267 268 270 271 272 273 273 274 275 275 276 276 276 277 278 278 279 279 280 280 281 281 282 282 283 283 284 285 285 286 288 289 291 292 293 294 296 297 297
265 266 267 268 268 269 269 270 271 272 273 274 274 275 275 276 277 278 278 279 279 280 280 280 281 281 282 282 282 283 284 284 285 286 287 288 289 290 292 293 294 296 297 297
267 267 268 269 270 270 270 270 271 271 272 273 274 275 276 277 277 278 279 279 279 279 280 280 281 281 282 282 283 284 284 285 285 286 287 288 289 290 292 293 295 296 296 296
268 268 269 270 270 270 271 271 272 273 274 274 275 276 276 277 277 277 278 278 279 279 280 280 281 281 282 283 284 284 284 284 285 286 287 288 290 290 291 293 294 295 296 296
269 270 270 270 271 272 273 274 275 275 275 276 276 276 277 277 278 278 278 279 279 280 280 281 281 282 282 283 284 284 285 285 286 287 288 289 290 291 292 293 294 295 295 295
Height
5842 5843 5843 5844 5845 5845 5846 5847 5849 5850 5851 5852 5852 5852 5853 5854 5854 5855 5855 5855 5856 5856 5857 5857 5857 5857 5858 5858 5857 5857 5857 5857 5857 5857 5857 5856 5856 5855 5854 5853 5851 5850 5848 5846
5840 5841 5841 5842 5843 5843 5844 5844 5845 5847 5848 5849 5849 5849 5850 5851 5851 5852 5852 5852 5853 5853 5853 5854 5854 5855 5855 5855 5855 5855 5855 5855 5855 5854 5853 5853 5852 5851 5850 5849 5847 5845 5843 5841
5838 5838 5839 5840 5841 5841 5841 5842 5843 5844 5846 5845 5846 5846 5847 5848 5848 5849 5849 5849 5849 5849 5850 5850 5851 5851 5852 5852 5852 5852 5852 5851 5851 5850 5849 5849 5848 5846 5845 5844 5842 5840 5838 5836
5835 5836 5837 5840 5838 5838 5838 5839 5839 5840 5841 5842 5842 5843 5844 5844 5845 5845 5845 5845 5845 5845 5846 5847 5847 5848 5848 5848 5848 5848 5848 5848 5847 5846 5845 5844 5843 5841 5840 5838 5837 5834 5832 5830
5831 5832 5833 5835 5834 5834 5834 5835 5836 5836 5837 5838 5839 5839 5840 5840 5841 5842 5842 5842 5842 5842 5842 5843 5843 5844 5844 5844 5844 5844 5844 5843 5842 5841 5840 5839 5837 5836 5834 5832 5830 5828 5825 5823
5827 5828 5829 5831 5830 5830 5832 5832 5832 5832 5833 5834 5835 5836 5837 5837 5837 5837 5838 5838 5838 5838 5839 5839 5839 5839 5840 5840 5840 5839 5839 5838 5837 5836 5834 5833 5831 5830 5828 5826 5823 5821 5818 5815
5822 5822 5824 5825 5825 5826 5828 5829 5828 5828 5829 5830 5830 5832 5832 5832 5833 5833 5833 5834 5834 5834 5834 5835 5835 5835 5835 5835 5834 5834 5833 5832 5831 5830 5828 5827 5825 5822 5820 5818 5816 5813 5810 5807
5817 5818 5821 5819 5820 5821 5822 5822 5822 5823 5824 5825 5826 5826 5827 5827 5828 5829 5829 5829 5829 5829 5829 5829 5830 5830 5829 5829 5828 5827 5827 5826 5824 5823 5821 5819 5817 5815 5812 5810 5807 5804 5801 5798
5812 5814 5814 5814 5814 5815 5816 5816 5817 5818 5819 5820 5821 5821 5822 5822 5823 5823 5823 5823 5823 5823 5823 5823 5823 5823 5823 5822 5822 5821 5820 5818 5817 5815 5813 5811 5809 5807 5804 5801 5798 5795 5792 5789
5805 5807 5807 5807 5808 5809 5810 5811 5812 5812 5813 5814 5815 5816 5816 5817 5817 5817 5817 5817 5817 5817 5817 5817 5817 5816 5816 5815 5814 5813 5812 5810 5809 5807 5805 5803 5800 5798 5795 5792 5789 5785 5782 5778
5798 5800 5800 5801 5802 5803 5804 5805 5806 5807 5808 5808 5809 5810 5810 5810 5811 5811 5811 5811 5811 5811 5811 5810 5810 5809 5808 5807 5806 5805 5804 5802 5800 5798 5796 5793 5791 5788 5785 5782 5778 5775 5771 5768
5792 5793 5793 5795 5795 5796 5797 5798 5799 5800 5801 5802 5802 5803 5803 5803 5804 5804 5804 5804 5804 5803 5803 5802 5802 5801 5800 5799 5797 5796 5794 5793 5791 5788 5786 5783 5781 5778 5775 5772 5768 5764 5760 5756
5783 5784 5785 5787 5788 5789 5790 5791 5792 5793 5794 5794 5795 5795 5795 5796 5796 5796 5796 5796 5795 5795 5795 5794 5793 5792 5791 5789 5788 5786 5785 5783 5780 5778 5776 5773 5770 5767 5764 5761 5757 5753 5748 5744
5775 5776 5778 5779 5780 5781 5782 5783 5784 5785 5786 5786 5786 5787 5787 5787 5787 5787 5787 5787 5787 5786 5786 5785 5784 5783 5781 5779 5778 5776 5774 5772 5769 5767 5764 5762 5759 5755 5752 5748 5745 5741 5736 5731
5766 5767 5769 5771 5772 5773 5773 5774 5775 5776 5777 5777 5777 5778 5778 5778 5778 5778 5778 5778 5777 5777 5776 5775 5774 5773 5771 5769 5767 5765 5763 5761 5758 5756 5753 5750 5747 5743 5740 5736 5732 5728 5723 5718
5757 5758 5760 5761 5762 5763 5764 5764 5765 5766 5766 5767 5767 5768 5768 5768 5768 5768 5768 5767 5767 5766 5765 5764 5763 5762 5760 5758 5756 5754 5752 5749 5746 5743 5740 5737 5734 5730 5727 5723 5718 5714 5709 5704
5748 5749 5750 5751 5752 5753 5753 5754 5755 5755 5756 5756 5757 5757 5757 5757 5757 5756 5756 5755 5755 5754 5753 5752 5751 5749 5748 5746 5744 5741 5739 5737 5734 5730 5727 5724 5720 5717 5713 5709 5704 5700 5695 5689
5737 5738 5739 5740 5741 5742 5743 5743 5744 5744 5745 5745 5745 5745 5745 5745 5745 5744 5744 5743 5742 5741 5740 5739 5738 5736 5734 5732 5730 5728 5725 5723 5720 5717 5713 5710 5706 5702 5698 5694 5689 5685 5680 5675
5726 5727 5728 5729 5729 5730 5731 5732 5732 5732 5733 5733 5733 5733 5733 5732 5732 5731 5730 5729 5729 5728 5727 5725 5724 5722 5720 5718 5715 5713 5711 5708 5705 5702 5699 5695 5691 5687 5683 5679 5674 5669 5664 5658
5714 5715 5716 5717 5718 5718 5719 5719 5720 5720 5720 5720 5720 5720 5720 5719 5718 5717 5716 5715 5714 5713 5712 5710 5709 5707 5705 5703 5700 5698 5695 5692 5689 5686 5683 5679 5675 5671 5667 5662 5658 5653 5647 5642
5702 5703 5704 5705 5705 5706 5706 5706 5707 5707 5707 5706 5706 5706 5705 5704 5703 5702 5701 5700 5699 5697 5695 5694 5692 5691 5689 5686 5684 5682 5679 5676 5673 5669 5666 5663 5659 5655 5650 5646 5641 5636 5630 5625
5689 5690 5691 5691 5692 5693 5693 5693 5693 5693 5693 5692 5691 5690 5690 5689 5688 5686 5685 5684 5683 5681 5679 5677 5676 5674 5672 5669 5667 5665 5662 5659 5656 5652 5649 5645 5642 5638 5633 5629 5624 5618 5613 5607
5675 5676 5677 5677 5678 5678 5678 5678 5678 5678 5677 5677 5676 5675 5674 5673 5671 5670 5669 5668 5666 5664 5662 5660 5658 5656 5654 5651 5649 5647 5644 5641 5638 5635 5632 5628 5624 5620 5616 5611 5606 5600 5595 5589
5662 5662 5662 5663 5663 5663 5663 5663 5663 5662 5661 5661 5660 5659 5657 5656 5655 5654 5652 5651 5649 5647 5645 5643 5641 5638 5636 5633 5631 5629 5626 5623 5620 5617 5614 5610 5606 5602 5597 5592 5588 5583 5577 5571
5647 5648 5648 5648 5648 5648 5648 5647 5647 5647 5646 5645 5644 5643 5641 5640 5638 5637 5635 5633 5631 5629 5627 5625 5622 5620 5617 5615 5613 5610 5607 5604 5601 5598 5595 5591 5588 5583 5579 5574 5569 5564 5559 5554
5632 5633 5633 5633 5633 5632 5632 5632 5631 5631 5629 5628 5627 5626 5624 5622 5621 5619 5617 5615 5613 5611 5609 5606 5604 5602 5599 5597 5594 5592 5589 5586 5583 5580 5576 5573 5569 5565 5561 5556 5552 5546 5541 5536
5618 5618 5618 5618 5617 5617 5616 5615 5614 5614 5612 5611 5610 5608 5607 5605 5603 5601 5599 5597 5595 5593 5590 5588 5586 5583 5581 5578 5576 5573 5570 5567 5564 5561 5558 5554 5550 5547 5543 5538 5534 5529 5524 5519